THOR ABLESTAR DEB, 3164

Orbit data source: Space-Track

THOR ABLESTAR DEB, 3164 is space debris in LEO originally from a launch on Thu, 29 Jun 1961 UTC launched from the Air Force Eastern Test Range (AFETR). Debris objects in space refer to the collection of defunct objects orbiting the Earth. Examples of debris include non-operational satellites, rocket bodies, and fragments generated from explosions, collisions, or faulty payload assembly.

Loading next visibility...
Identifier
3164, 1961-015HZ
Orbit
LEO
Country
Flag of USUS
Related business
Manufacturer
Unknown
Mission
Spacecraft
Bus & Motor
Unknown
Mass
Unknown
Launch date (UTC)
1961-06-29 (65 years ago)
Launch vehicle
Unknown
Launch site
Air Force Eastern Test Range (AFETR)
Object type
Payload
Rocket body
Debris
Shape & HBR
Unknown shape, 1.1 m
Radar Cross Section
Medium (>0.1 m² and <1 m²)

Expand to show TLE details & history
Last TLE update: 23 hours ago

TLE from 23 hours ago
0 THOR ABLESTAR DEB
1 03164U 61015HZ  26175.03735115  .00000689  00000-0  47789-3 0  9994
2 03164  66.7470  72.5975 0042837  36.0343 324.3616 14.04454521 88779
Epoch: 2026-06-24T00:53Z
TLE epoch observation values (Epoch: 2026-06-24T00:53:47.139Z)
Latitude
-0.00005°
Longitude
146.95075°
Altitude
855.276 km
Speed
7.438 km/s
True Right ascension
04h 50m 23s
True Declination
0° 00' 00"
Sunlit
Object was in daylight at epoch
Visualization orbit readout
Latitude
Unknown
Longitude
Unknown
Altitude
Unknown
Speed
Unknown
Apparent Right ascension
Unknown
Apparent Declination
Unknown
Sunlit
N/A
Visualization observer readout
Local Sidereal Time
11:14:19
Azimuth
Unknown
Elevation
Unknown
Doppler factor
Unknown
Orbital elements
Apogee altitude
907.878 km
Perigee altitude
845.722 km
Semi-major axis
7,254.937 km
Eccentricity
0.00428
Inclination
66.747°
RAAN
72.5975°
Arg. of periapsis
36.0343°
True anomaly
324.07433°
Mean anomaly
324.3616°
Eccentric anomaly
324.21809°
Mean motion
3.51231 °/min
Orbital period
102.5 mins
BSTAR
0.00047789

Documentation

Showing up to 5 results
|